カタログに戻る

COSMOS 1197

運用中軍事LEO
NORAD 11880·PAYLOAD·🇷🇺 Russia

打ち上げ Jul 9, 1980 から Plesetsk Cosmodrome

Loading…

次のパス (今後24時間)

TLE

最新Source: Space-Track

元期: Sep 14, 2026, 13:16 UTC

1 11880U 80058F   26257.55286722 -.00000006  00000-0  68883-4 0  9992
2 11880  74.0221   5.1003 0013917 289.1581  70.7961 12.46012557100666

AllMySatでCOSMOS 1197をリアルタイム追跡

Download on the App Store